Location: Devore Heights
(34.2372°N, 117.4156°W)
Time: 09:54:20
(UTC+00:00)

A-11 Canister half - Pass Details

Date: 18 September 2024
Orbit: 1515 x 1684 km, 47.2° (Epoch: 07 October)

Event Time Altitude Azimuth Distance (km) Brightness Sun altitude
Rises 09:51:38 0° 297° (WNW) 4,660 - -43.3°
Reaches altitude 10° 09:55:11 10° 286° (WNW) 3,684 - -42.7°
Maximum altitude 10:02:35 28° 232° (SW) 2,588 - -41.6°
Drops below altitude 10° 10:10:08 10° 178° (S) 3,749 - -40.4°
Sets 10:13:50 0° 167° (SSE) 4,757 - -39.8°
